Nanjing Lukou Airport
ZSNJ : now visible

Airfield :











YOU CAN JOIN US ON...

 
LOGIN :

Register | Disclaimer

   EN    FR    IT 

 









Legend :    VFR   Marginal VFR   IFR   Intensive IFR   Very Intensive IFR
Visi :
Ceiling :
>= 8 km
>= 3000ft
5 to 8 km
1000 to 3000 ft
1500m to 5 km
500 to 1000 ft
800 to 1500m
200 to 500 ft
< 800m
< 200 ft
Symbols :   Thunderstorms  Fog  Heavy snow  Heavy precipitations  Wind > 20 kt






- Airport Elevation : 49 ft
- IATA code : NKG


ZSNJ - Nanjing Lukou

CURRENT METAR :
  • 131100Z 33004MPS CAVOK 17/02 Q1026 NOSIG

EXPIRED METARs :
  • 131000Z 34003MPS 310V010 CAVOK 18/05 Q1026 NOSIG
  • 130900Z 33004MPS 300V010 CAVOK 19/06 Q1024 NOSIG

TAF TAF ZSNJ
Valid from the 13 at 12:00 until the 14 at 12:00 UTC


130904Z 1312/1412 33006MPS 3000 HZ NSC TX14/1406Z TN05/1321Z
BECMG 1322/1324 09003MPS



MET'MAP, your aeronautical weather chart ! - Copyright ORBIFLY December 2007 - Disclaimer

ORBIFLY MET'MAP TEAM :

Programming & Development : Alexandra Zaïnal
Concept & Development : Baudouin d'Aumeries
Co-Development & Prog : Marc-Olivier Méhu
Technical & hardware support : Manuel Goepfert

Contact : metmap@orbifly.com




SOURCES & CREDITS :

   NOAA       Earth
Advisory